• Join FlightAware (Why Join?)
  • Login
  • US Flag 
04:35AM EDT


 

Airport Tracker/Info


-or-


 

Live Flight TrackerFlight Track Log ✈ SWA655 ✈ 12-Apr-2013 ✈ KLAX - KLAS

Flight Track Log - Related Links

Times and Time Zones

All times are in EDT time to prevent confusion due to time zone crossing. See the SWA655 flight status page for this flight to view local times or setup timezone preferences in your user account.

Time Position Orientation Groundspeed Altitude Reporting Facility
EDT Latitude Longitude Course Direction KTS MPH feet Rate Location/Type
07:08PM 33.9500 -118.4500 252° West 166 191 1,700  Level Southern California TRACON
07:09PM 33.9311 -118.5219 252° West 211 243 5,200 3,240 Climbing Los Angeles Center
07:10PM 33.9089 -118.4736 119° Southeast 224 258 8,600 2,760 Climbing Los Angeles Center
07:11PM 33.9489 -118.4058 55° Northeast 271 312 11,000 2,580 Climbing Los Angeles Center
07:12PM 34.0031 -118.3108 55° Northeast 338 389 14,000 3,300 Climbing Los Angeles Center
07:13PM 34.0711 -118.1903 56° Northeast 359 413 17,900 3,420 Climbing Los Angeles Center
07:14PM 34.1297 -118.0858 56° Northeast 372 428 21,200 2,820 Climbing Los Angeles Center
07:15PM 34.1908 -117.9772 56° Northeast 386 444 23,800 2,640 Climbing Los Angeles Center
07:16PM 34.2531 -117.8669 56° Northeast 395 455 26,700 2,460 Climbing Los Angeles Center
07:17PM 34.3114 -117.7606 56° Northeast 384 442 29,000 1,080 Climbing Los Angeles Center
07:18PM 34.3706 -117.6564 55° Northeast 376 433 29,000  Level Los Angeles Center
07:19PM 34.4322 -117.5450 56° Northeast 378 435 29,000  Level Los Angeles Center
07:20PM 34.4906 -117.4386 56° Northeast 380 437 29,000  Level Los Angeles Center
07:22PM 34.5476 -117.3266 56° Northeast  Level FlightAware Approximate
07:22PM 34.6292 -117.1864 56° Northeast 412 474 29,000  Level Los Angeles Center
07:23PM 34.6928 -117.0700 56° Northeast 416 479 29,000  Level Los Angeles Center
07:25PM 34.7558 -116.9558 56° Northeast 410 472 29,000  Level Los Angeles Center
07:26PM 34.8183 -116.8383 57° Northeast 415 478 29,000  Level Los Angeles Center
07:27PM 34.8942 -116.6997 56° Northeast 411 473 29,000 -180 Level Los Angeles Center
07:28PM 34.9575 -116.5836 56° Northeast 412 474 28,700 -1,440 Descending Los Angeles Center
07:29PM 35.0356 -116.4831 47° Northeast 410 472 26,100 -2,280 Descending Los Angeles Center
07:30PM 35.1108 -116.3892 46° Northeast 395 455 24,000 -1,500 Descending Los Angeles Center
07:31PM 35.1864 -116.2956 45° Northeast 390 449 23,000 -1,020 Descending Los Angeles Center
07:32PM 35.2539 -116.2100 46° Northeast 357 411 21,900 -1,260 Descending Los Angeles Center
07:33PM 35.3289 -116.1150 46° Northeast 327 376 20,400 -1,260 Descending Los Angeles Center
07:34PM 35.3911 -116.0369 46° Northeast 323 372 19,400 -960 Descending Los Angeles Center
07:35PM 35.4333 -115.9844 45° Northeast 323 372 18,700 -960 Descending Los Angeles Center
07:35PM 35.4533 -115.9583 47° Northeast 322 371 18,400 -1,680 Descending Los Angeles Center
07:35PM 35.4806 -115.9219 47° Northeast 322 371 17,700 -1,500 Descending Los Angeles Center
07:36PM 35.5244 -115.8692 44° Northeast 319 367 16,900 -1,440 Descending Los Angeles Center
07:37PM 35.5839 -115.7947 46° Northeast 311 358 15,300 -1,560 Descending Los Angeles Center
07:38PM 35.6428 -115.7197 46° Northeast 306 352 13,700 -1,140 Descending Los Angeles Center
07:39PM 35.6992 -115.6472 46° Northeast 299 344 13,000 -360 Descending Los Angeles Center
07:40PM 35.7550 -115.5786 45° Northeast 264 304 13,000  Level Los Angeles Center
07:41PM 35.8328 -115.5694 North 261 300 13,000  Level Los Angeles Center
07:42PM 35.9017 -115.5728 358° North 250 288 13,000  Level Los Angeles Center
07:43PM 35.9756 -115.5847 353° North 249 287 13,000  Level Los Angeles Center
07:44PM 36.0131 -115.5244 52° Northeast 251 289 13,000 -600 Level Los Angeles Center
07:45PM 36.0272 -115.4358 79° East 263 303 11,800 -1,080 Descending Los Angeles Center
07:46PM 36.0300 -115.3422 88° East 270 311 10,800 -1,260 Descending Los Angeles Center
07:47PM 36.0208 -115.2314 96° East 272 313 9,300 -1,020 Descending Los Angeles Center
07:48PM 36.0144 -115.1411 95° East 269 310 8,800 -780 Descending Los Angeles Center
07:49PM 36.0089 -115.0536 94° East 261 300 7,800 -1,020 Descending Los Angeles Center
07:50PM 36.0042 -114.9686 94° East 255 293 6,800 -1,020 Descending Los Angeles Center
07:51PM 36.0406 -114.9214 46° Northeast 252 290 5,800 -1,080 Descending Los Angeles Center
07:52PM 36.0733 -114.9775 306° West 209 241 4,700 -1,200 Descending Los Angeles Center
07:53PM 36.0747 -115.0417 272° West 189 217 3,400 -1,020 Descending Los Angeles Center
07:55PM 36.0739 -115.0931 269° West 169 194 2,600 -720 Descending Los Angeles Center
07:56PM 36.0744 -115.1439 271° West 155 178 2,000 -600 Descending Los Angeles Center